Flag for Russia

Past Weather in Novorossiysk, Russia — Yesterday and Last 2 Weeks

Now
73 °F

Partly cloudy.


Feels Like: 73 °F
Forecast: 83 / 67 °F
Wind: 6 mph from Northwest

Location: Anapa / Vitiazevo
Current Time: Sep 28, 2020 at 12:23:56 am
Latest Report: Sep 28, 2020 at 12:00 am
Visibility: N/A
Pressure30.04 "Hg
Humidity: 83%
Dew Point: 68 °F
Location of NovorossiyskLocation

Past Weather in Novorossiysk — Graph

°F

Novorossiysk Temperature Yesterday

Maximum temperature yesterday: 86 °F (at 12:00 pm)
Minimum temperature yesterday: 63 °F (at 6:30 am)
Average temperature yesterday: 74 °F

High & Low Weather Summary for the Past Weeks

 TemperatureHumidityPressure
High88 °F (Sep 13, 2:00 pm)88% (Sep 16, 3:30 am)30.18 "Hg (Sep 16, 3:30 am)
Low50 °F (Sep 19, 5:00 am)23% (Sep 14, 4:00 pm)29.74 "Hg (Sep 26, 5:00 am)
Average68 °F57%30.00 "Hg
* Reported Sep 12 11:00 pm — Sep 27 11:30 pm, Novorossiysk. Weather by CustomWeather, © 2020

Note: Actual official high and low records may vary slightly from our data, if they occured in-between our weather recording intervals... More about our weather records

Novorossiysk Weather History for the Previous 24 Hours

Scroll right to see more
 ConditionsComfort  
Time TempWeatherWind HumidityBarometerVisibility
11:30 pm
Sun, Sep 27
73 °FPartly cloudy.6 mph83%30.01 "Hg4 mi
11:00 pm73 °FPassing clouds.3 mph83%30.01 "Hg5 mi
10:30 pm73 °FPassing clouds.3 mph83%30.01 "HgN/A
10:00 pm73 °FPassing clouds.3 mph83%30.01 "HgN/A
9:30 pm75 °FPassing clouds.6 mph78%29.98 "HgN/A
9:00 pm75 °FPassing clouds.6 mph78%29.98 "HgN/A
8:30 pm73 °FPassing clouds.3 mph78%29.98 "HgN/A
8:00 pm72 °FPassing clouds.1 mph78%29.98 "HgN/A
7:30 pm73 °FPassing clouds.3 mph74%29.98 "HgN/A
7:00 pm75 °FPassing clouds.3 mph69%29.95 "HgN/A
6:30 pm77 °FPassing clouds.6 mph69%29.95 "HgN/A
6:00 pm79 °FPartly sunny.3 mph58%29.95 "HgN/A
5:30 pm81 °FPassing clouds.6 mph45%29.92 "HgN/A
5:00 pm81 °FScattered clouds.10 mph45%29.92 "HgN/A
4:30 pm82 °FSunny.13 mph42%29.92 "Hg10 mi
4:00 pm84 °FPassing clouds.13 mph40%29.92 "HgN/A
3:30 pm86 °FPassing clouds.13 mph43%29.89 "HgN/A
3:00 pm86 °FPassing clouds.10 mph49%29.89 "HgN/A
2:30 pm86 °FPassing clouds.10 mph46%29.89 "HgN/A
2:00 pm86 °FPassing clouds.10 mph49%29.89 "HgN/A
1:30 pm86 °FScattered clouds.10 mph46%29.89 "HgN/A
1:00 pm86 °FScattered clouds.13 mph46%29.89 "HgN/A
12:30 pm82 °FPassing clouds.10 mph48%29.89 "HgN/A
12:00 pm86 °FPassing clouds.13 mph43%29.86 "HgN/A
11:30 am84 °FPassing clouds.15 mph43%29.86 "HgN/A
11:00 am84 °FPassing clouds.13 mph45%29.86 "HgN/A
10:30 am84 °FPassing clouds.10 mph45%29.86 "HgN/A
10:00 am82 °FPassing clouds.10 mph48%29.86 "HgN/A
9:30 am77 °FPassing clouds.8 mph61%29.86 "HgN/A
9:00 am73 °FSunny.8 mph65%29.83 "Hg10 mi
8:30 am72 °FSunny.8 mph69%29.83 "Hg10 mi
8:00 am68 °FSunny.6 mph78%29.83 "Hg10 mi
7:30 am66 °FSunny.8 mph83%29.83 "Hg10 mi
7:00 am63 °FPassing clouds.6 mph88%29.83 "HgN/A
6:30 am63 °FPassing clouds.3 mph88%29.83 "HgN/A
6:00 am64 °FPassing clouds.3 mph83%29.83 "HgN/A
5:30 am64 °FPassing clouds.6 mph88%29.80 "HgN/A
5:00 am64 °FPassing clouds.8 mph88%29.80 "HgN/A
4:30 am64 °FPassing clouds.6 mph83%29.83 "HgN/A
4:00 am64 °FPassing clouds.3 mph88%29.83 "HgN/A
3:30 am66 °FPassing clouds.3 mph83%29.83 "HgN/A
3:00 am66 °FPassing clouds.6 mph88%29.80 "HgN/A
2:30 am66 °FPassing clouds.6 mph83%29.83 "HgN/A
2:00 am66 °FPassing clouds.3 mph88%29.80 "HgN/A
1:30 am66 °FPassing clouds.3 mph83%29.80 "HgN/A
1:00 am66 °FPassing clouds.6 mph88%29.80 "HgN/A
12:30 am64 °FPassing clouds.3 mph88%29.80 "Hg6 mi
12:00 am66 °FPassing clouds.3 mph83%29.80 "Hg4 mi
Weather by CustomWeather, © 2020

See weather overview